Volver al catálogo

SL-12 DEB

LostHEO
NORAD 29428·DEBRIS·🇷🇺 Russia

Lanzado May 31, 1989 desde Baikonur Cosmodrome

Loading…

Próximos Pases (próximas 24 horas)

TLE

ObsoletoSource: Space-Track

Época: Dec 16, 2006, 17:11 UTC

1 29428U 89039CB  06350.71613791 +.00040732 +00000-0 +61616-1 0  9990
2 29428 065.5883 225.8274 5670266 062.2389 344.1572 04.37803225006819

Sigue SL-12 DEB en tiempo real con AllMySat

Download on the App Store